Flag for Nepal Weather past 2 weeks in Pokhara, Nepal

Now
55 °F

Passing clouds.


Feels Like: 55 °F
Forecast: 55 / 75 °F
Wind: 3 mph from Southeast

Location: Kathmandu Airport

Current Time: Apr 29, 2015 at 1:12:25 AM

Latest Report: Apr 29, 2015 at 12:35 AM


Visibility: 4 mi

Pressure: 30.01 "Hg

Humidity: 100%

Dew point: 55 °F

Location of PokharaLocation

Historic Weather in Pokhara — Graph

°F

Pokhara temperature yesterday

Maximum temperature yesterday: 70 °F (at 9:35 AM)
Minimum temperature yesterday: 57 °F (at 11:35 PM)
Average temperature yesterday: 63 °F

Past Weeks' High & Low Weather Summary

 TemperatureHumidityPressure
High82 °F (Apr 21, 1:35 PM)100% (Apr 14, 1:35 AM)30.24 "Hg (Apr 14, 1:35 AM)
Low54 °F (Apr 23, 4:35 AM)21% (Apr 23, 1:35 PM)29.77 "Hg (Apr 18, 3:35 PM)
Average65 °F75%30.02 "Hg
* Reported Apr 13 11:35 PM — Apr 28 11:35 PM, Pokhara, Weather by CustomWeather, © 2015

Note: Actual official high and low records may vary slightly from our data, if they occured in-between our weather recording intervals... More about our weather records

Advertising

Pokhara weather history for previous 24 hours

 ConditionsComfort  
Time TempWeatherWind HumidityBarometerVisibility
11:35 PM
Tue, Apr 28
57 °FPassing clouds.3 mph94%30.01 "Hg4 mi
10:35 PM59 °FPassing clouds.3 mph88%30.01 "Hg4 mi
9:35 PM59 °FPartly cloudy.3 mph94%30.01 "Hg5 mi
8:35 PM61 °FPartly cloudy.2 mph88%29.98 "Hg5 mi
7:35 PM61 °FPartly cloudy.2 mph88%29.98 "Hg5 mi
6:35 PM63 °FScattered clouds.5 mph83%29.92 "Hg5 mi
5:35 PM63 °FBroken clouds.3 mph83%29.92 "Hg5 mi
4:35 PM64 °FBroken clouds.3 mph73%29.95 "Hg5 mi
3:35 PM63 °FBroken clouds.5 mph83%29.95 "Hg5 mi
2:35 PM61 °FRain. Broken clouds.6 mph94%30.01 "Hg4 mi
1:35 PM61 °FThunderstorms. Broken clouds.10 mph83%30.04 "Hg4 mi
12:35 PM70 °FBroken clouds.5 mph64%30.04 "Hg4 mi
11:35 AM70 °FBroken clouds.6 mph64%30.07 "Hg5 mi
10:35 AM70 °FBroken clouds.8 mph64%30.09 "Hg5 mi
9:35 AM70 °FScattered clouds.3 mph69%30.07 "Hg4 mi
8:35 AM66 °FFog.2 mph78%30.07 "Hg3 mi
7:35 AM63 °FFog.3 mph83%30.07 "Hg2 mi
6:35 AM61 °FFog.3 mph83%30.04 "Hg2 mi
5:35 AMN/AFog.3 mphN/AN/A2 mi
4:35 AM59 °FPassing clouds.3 mph88%30.01 "Hg4 mi
2:35 AM61 °FPassing clouds.2 mph88%30.01 "Hg4 mi
1:35 AM59 °FPassing clouds.3 mph88%30.01 "Hg4 mi
Weather by CustomWeather, © 2015

See weather overviewHow to use our weather pages